Regional Weather Roundup
Issued by NWS Charleston, WV

Home | Current Version | Previous Version | Text Only | Print | Product List | Glossary Off
Versions: 1 2 3 4 5 6 7 8 9 10 11 12 13 14 15 16 17 18 19 20 21 22 23 24 25 26 27 28 29 30 31 32 33 34 35 36 37 38 39 40 41 42 43 44 45 46 47 48 49 50

000
ASUS41 KRLX 251310
RWRRLX
West Virginia Regional Weather Roundup
National Weather Service Charleston WV
900 AM EDT FRI JUL 25 2014

Note: "fair" indicates few or no clouds below 12,000 feet with no
significant weather and/or obstructions to visibility.

WVZ003-251400-
Northern Panhandle of West Virginia

CITY           SKY/WX    TMP DP  RH WIND       PRES   REMARKS
WHEELING       SUNNY     59  55  87 CALM      30.13R
$$

WVZ009-251400-
Northwest West Virginia

CITY           SKY/WX    TMP DP  RH WIND       PRES   REMARKS
PARKERSBURG    MOSUNNY   64  56  75 CALM      30.15R
$$

WVZ006-251400-
Western West Virginia

CITY           SKY/WX    TMP DP  RH WIND       PRES   REMARKS
HUNTINGTON     FOG       59  59 100 SE3       30.11S VSB 1/2
$$

WVZ015-251400-
West Central West Virginia

CITY           SKY/WX    TMP DP  RH WIND       PRES   REMARKS
CHARLESTON     PTSUNNY   65  60  84 SW3       30.12R
$$

WVZ031-251400-
North Central West Virginia

CITY           SKY/WX    TMP DP  RH WIND       PRES   REMARKS
CLARKSBURG     SUNNY     62  56  80 SW3       30.13R
MORGANTOWN     SUNNY     63  54  72 CALM      30.14R
$$

WVZ035-042-045-251400-
South Central West Virginia

CITY           SKY/WX    TMP DP  RH WIND       PRES   REMARKS
BECKLEY        CLOUDY    60  56  86 CALM      30.16R
BLUEFIELD      CLOUDY    63  56  78 SE3       30.16R
LEWISBURG      MOSUNNY   63  58  83 CALM      30.15S
$$

WVZ047-251400-
Northern Mountains of West Virginia

CITY           SKY/WX    TMP DP  RH WIND       PRES   REMARKS
ELKINS         CLOUDY    59  56  89 SE5       30.17R
$$

WVZ052-251400-
Eastern Panhandle of West Virginia

CITY           SKY/WX    TMP DP  RH WIND       PRES   REMARKS
MARTINSBURG    SUNNY     67  54  63 NE5       30.11R
PETERSBURG     CLOUDY    56  53  89 CALM      30.15R FOG
$$


USA.gov is the U.S. government's official web portal to all federal, state and local government web resources and services.